User: anonymous   Login
Location: Caltech
(34.1382°N, 118.1253°W)
Time: 04:52:40
(UTC-07:00)
Language:

CZ-2C R/B - Orbit

View from above orbital plane
View from above orbital plane
View from above satellite
View from above satellite

Ground track
Ground track

The orbit data is extracted from the following two-line orbital elements,

1 36089U 09061B   16148.53665939  .00000006  00000-0  12662-4 0  9995
2 36089  98.0518 161.5536 0082731 152.5979 322.3473 14.49577996345833
Epoch (UTC): 27 May 2016 12:52:47
Eccentricity: 0.0082731
inclination: 98.0518°
perigee height: 668 km
apogee height: 786 km
right ascension of ascending node: 161.5536°
argument of perigee: 152.5979°
revolutions per day: 14.49577996
mean anomaly at epoch: 322.3473°
orbit number at epoch: 34583

The dashed part of the orbit path shows where the satellite is in the earth's shadow,  

DLR